Regional Weather Roundup
Issued by NWS

Home | Current Version | Previous Version | Graphics & Text | Print | Product List | Glossary On
Versions: 1 2 3 4 5 6 7 8 9 10 11 12 13 14 15 16 17 18 19 20 21 22 23 24 25 26 27 28 29 30 31 32 33 34 35 36 37 38 39 40 41 42 43 44 45 46 47 48 49 50
000
ASUS45 KPSR 260400
RWRAZ

PRELIMINARY ARIZONA REGIONAL HOURLY WEATHER ROUNDUP
NATIONAL WEATHER SERVICE PHOENIX AZ
900 PM MST THU DEC 25 2014

NOTE: FAIR INDICATES FEW OR NO CLOUDS BELOW 12,000 FEET WITH NO
SIGNIFICANT WEATHER AND/OR OBSTRUCTIONS TO VISIBILITY.

AZZ001>003-036-260500-
NORTHWEST ARIZONA

CITY           SKY/WX    TMP DP  RH WIND       PRES   REMARKS
KINGMAN        CLEAR     32  13  45 N5        29.83R WCI  27
$$

AZZ004>008-015-016-018-260500-
NORTH CENTRAL ARIZONA

CITY           SKY/WX    TMP DP  RH WIND       PRES   REMARKS
GRAND CANYON   PTCLDY    19  10  68 W3        29.71S
PRESCOTT       CLEAR     28   4  35 W6        29.77S WCI  22
FLAGSTAFF      NOT AVBL
PAYSON         CLOUDY    34   9  35 NW9       29.76R WCI  26
PAGE           PTCLDY    34  14  43 W9        29.70S WCI  27
$$

AZZ009>014-017-260500-
NORTHEAST ARIZONA

CITY           SKY/WX    TMP DP  RH WIND       PRES   REMARKS
WINSLOW        NOT AVBL
SAINT JOHNS    CLOUDY    33  23  66 SW9       29.69S WCI  25
WINDOW ROCK    MOCLDY    22  17  81 CALM      29.68S
SHOW LOW       PTCLDY    25  19  80 W6        29.74R WCI  18
$$

AZZ023-260500-
GREATER PHOENIX AREA

CITY           SKY/WX    TMP DP  RH WIND       PRES   REMARKS
PHOENIX        CLEAR     53  20  27 W12       29.77R
LUKE AFB       CLEAR     52  16  23 NW15      29.78R
DEER VALLEY    CLEAR     48  18  30 W10       29.76R
SCOTTSDALE     CLEAR     51  17  26 W8        29.78R
CHANDLER       CLEAR     50  21  32 SW9       29.78R
$$

AZZ027-028-260500-
SOUTHWEST MARICOPA COUNTY AND PINAL COUNTY

CITY           SKY/WX    TMP DP  RH WIND       PRES   REMARKS
CASA GRANDE    CLEAR     48  19  32 CALM      29.79R
$$

AZZ503-504-507>509-260500-
SOUTHEAST ARIZONA

CITY           SKY/WX    TMP DP  RH WIND       PRES   REMARKS
TUCSON         CLOUDY    46  43  89 SE13      29.83R
DAVIS-MONTHAN  MOCLDY    44  42  93 SE8       29.81R
NOGALES        CLOUDY    51  39  63 SW17G28   29.81R
SIERRA VISTA   LGT RAIN  49  38  65 SW30G41   29.77R
SAFFORD        LGT RAIN  41  37  86 NW15      29.77R
$$

AZZ020-021-025-026-031-260500-
SOUTHWEST ARIZONA

CITY           SKY/WX    TMP DP  RH WIND       PRES   REMARKS
YUMA           MOCLDY   N/A N/A N/A N12G20    29.85R
$$

CAZ031-033-041-043-047-048-061-260500-
SOUTHERN CALIFORNIA

CITY           SKY/WX    TMP DP  RH WIND       PRES   REMARKS
DOWNTOWN L.A.  CLEAR     54  21  27 VRB7G20   29.89R
L.A. AIRPORT   CLEAR     54  21  27 N14G21    29.90R
SAN DIEGO      CLEAR     58  40  51 CALM      29.89R
BURBANK        CLEAR     52  21  29 N13       29.91S
ONTARIO        CLEAR     56  12  17 NE13G23   29.88R
RIVERSIDE      CLEAR     55  17  22 NE12G20   29.90R
PALM SPRINGS   CLEAR     57   8  14 VRB3      29.92R
EL CENTRO NAS  CLOUDY    52  19  27 W5        29.87R
IMPERIAL       CLOUDY    53  21  28 W3        29.87R
BLYTHE         CLEAR     53  11  18 NW10      29.87R
$$

NVZ020-UTZ003-260500-
SOUTHERN NEVADA-UTAH

CITY           SKY/WX    TMP DP  RH WIND       PRES   REMARKS
LAS VEGAS      NOT AVBL
SALT LAKE CITY LGT SNOW  28  26  92 N9        29.80S FOG     WCI  19
$$

NMZ009-TXZ055-260500-
NEW MEXICO-WEST TEXAS

CITY           SKY/WX    TMP DP  RH WIND       PRES   REMARKS
ALBUQUERQUE    MOCLDY    38  30  73 N10G25    29.72R WCI  31
EL PASO        PTCLDY    56  21  25 SW13      29.74R
$$


........................KEY........................
SKY/WX - SKY CONDITION/WEATHER
TMP    - TEMPERATURE IN FAHRENHEIT
DP     - DEW POINT IN FAHRENHEIT
RH     - RELATIVE HUMIDITY IN PERCENT
WIND   - DIRECTION AND SPEED IN MILES PER HOUR (MPH)
VRB    - VARIABLE WIND DIRECTION
PRES   - MEAN SEA LEVEL PRESSURE IN INCHES OF MERCURY
         F - FALLING PRESSURE   R - RISING PRESSURE
         S - STEADY PRESSURE
VSB    - VISIBILITY IN MILES
HX     - HEAT INDEX IN FAHRENHEIT
WCI    - WIND CHILL INDEX IN FAHRENHEIT
TC     - TEMPERATURE IN CELSIUS WHICH IS ALSO KNOWN AS
         TEMPERATURE IN CENTIGRADE
AFB    - AIR FORCE BASE
         LUKE AFB IS LUKE AIR FORCE BASE
         DAVIS-MONTHAN IS DAVIS-MONTHAN AIR FORCE BASE
NAS    - NAVAL AIR STATION
         EL CENTRO NAS IS EL CENTRO NAVAL AIR STATION
N/A    - NOT AVAILABLE



USA.gov is the U.S. government's official web portal to all federal, state and local government web resources and services.